Terminal Aerodrome Forecast
Issued by NWS

Current Version | Previous Version | Graphics & Text | Print | Product List | Glossary On
Versions: 1 2 3 4 5 6 7 8 9 10 11 12 13 14 15 16 17 18 19 20 21 22 23 24 25 26 27 28 29 30 31 32 33 34 35 36 37 38 39 40 41
000
FTUS41 KRNK 271501 AAB
TAFLWB
TAF AMD
KLWB 271501Z 2715/2812 22008KT 5SM SHRA BR VCTS SCT015 OVC025CB
      TEMPO 2715/2717 1SM TSRA BR OVC015CB
     FM271700 26006KT P6SM VCSH BKN040 OVC060
     FM272000 25008KT P6SM VCTS BKN040CB
     FM272300 26007KT P6SM -SHRA VCTS BKN050CB
     FM280400 26008KT P6SM BKN050=

USA.gov is the U.S. government's official web portal to all federal, state and local government web resources and services.